Location: Antioch Church
(34.9543°N, 88.5145°W)
Time: 13:14:32
(UTC+00:00)

BREEZE-M DEB (TANK) - Pass Details

Date: 11 December 2019
Orbit: 435 x 13848 km, 45.9° (Epoch: 18 January)

Event Time Altitude Azimuth Distance (km) Brightness Sun altitude
Rises 00:12:11 0° 298° (WNW) 3,480 7.1 -17.8°
Reaches altitude 10° 00:15:53 10° 321° (NW) 1,858 5.3 -18.6°
Enters shadow 00:18:02 16° 359° (N) 1,274 4.0 -19.0°
